(269814) = 2008 RE105 = 1999 VV143

Discovered at Catalina on 1999-11-11 by CSS.

Orbit

Orbit type: Main Belt

Note: WebGL enabled browser required.

epoch2024-03-31.0
epoch JD2460400.5
perihelion date2022-10-10.10627
perihelion JD2459862.60627
argument of perihelion (°)333.93543
ascending node (°)28.85347
inclination (°)8.45354
eccentricity0.1519475
perihelion distance (AU)2.3653792
Tisserand w.r.t. Jupiter3.3
ΔV w.r.t. Earth (km/sec)10.0
semimajor axis (AU)2.7891897
mean anomaly (°)113.81074
mean daily motion (°/day)0.21158590
aphelion distance (AU)3.213
period (years)4.66
P-vector [x]0.99651191
P-vector [y]0.07417088
P-vector [z]-0.03824513
Q-vector [x]-0.04394656
Q-vector [y]0.85602352
Q-vector [z]0.51506546
absolute magnitude15.7
phase slope0.15
uncertainty0
referenceMPEC 2024-C37
observations used738
oppositions13
arc length (days)8871
first opposition used1999
last opposition used2024
residual rms (arc-secs)0.65
perturbers coarse indicatorM-v
perturbers precise indicator003Ek
first observation date used1999-10-06.0
last observation date used2024-01-19.0
computer nameMPCLINUX
JD of orbit computation2456700.232549
perihelion JD uncertainty (days)9.8218E-05
argument of perihelion uncertainty (°)3.3111E-05
ascending node uncertainty (°)2.5704E-05
inclination uncertainty (°)1.0866E-05
eccentricity uncertainty 1.0332E-07
perihelion distance uncertainty (AU)2.8596E-07
Minimum Orbit Intersection Distances (in AU)
for orbit epoch: 2460400.5, reference: E2024-GB3
Mercury1.99919
Venus1.63902
Earth1.36693
Mars0.96315
Jupiter2.24196
Saturn6.168
Uranus15.2517
Neptune27.297

Observations

755 total observations over interval: 1999 10 06.31356 – 2024 01 19.248638
These data are available for download (format description).

Date (UT) J2000 RA J2000 Dec Magn Location Ref
1999 10 06.31356 03 06 55.97 +18 56 51.4 19.6   704 – Lincoln Laboratory ETS, New Mexico MPS 14006
1999 10 06.32680 03 06 55.52 +18 56 52.9 20.1   704 – Lincoln Laboratory ETS, New Mexico MPS 14006
1999 10 06.34002 03 06 55.06 +18 56 55.0 20.3   704 – Lincoln Laboratory ETS, New Mexico MPS 14006
1999 10 06.35326 03 06 54.61 +18 56 57.3 20.1   704 – Lincoln Laboratory ETS, New Mexico MPS 14006
1999 10 06.36649 03 06 54.17 +18 56 58.3 20.2   704 – Lincoln Laboratory ETS, New Mexico MPS 14006
1999 10 10.27799 03 04 40.34 +19 05 14.6 19.3   704 – Lincoln Laboratory ETS, New Mexico MPS 14006
1999 10 10.29407 03 04 39.76 +19 05 15.8 19.0   704 – Lincoln Laboratory ETS, New Mexico MPS 14006
1999 10 10.30976 03 04 39.06 +19 05 17.5 19.3   704 – Lincoln Laboratory ETS, New Mexico MPS 14006
1999 10 10.32483 03 04 38.43 +19 05 20.2 20.0   704 – Lincoln Laboratory ETS, New Mexico MPS 14006
1999 10 10.34102 03 04 37.86 +19 05 21.4 19.2   704 – Lincoln Laboratory ETS, New Mexico MPS 14006
1999 10 15.40604 03 01 06.64 +19 13 42.2 19.4   704 – Lincoln Laboratory ETS, New Mexico MPS 14006
1999 10 15.42152 03 01 05.86 +19 13 42.4 19.9   704 – Lincoln Laboratory ETS, New Mexico MPS 14006
1999 10 15.43684 03 01 05.20 +19 13 44.4 19.9   704 – Lincoln Laboratory ETS, New Mexico MPS 14006
1999 10 15.45218 03 01 04.44 +19 13 44.0 20.5   704 – Lincoln Laboratory ETS, New Mexico MPS 14006
1999 10 15.46755 03 01 03.66 +19 13 45.5 19.7   704 – Lincoln Laboratory ETS, New Mexico MPS 14006
1999 10 21.25555 02 56 18.59 +19 20 04.7 18.8   704 – Lincoln Laboratory ETS, New Mexico MPS 14006
1999 10 21.27100 02 56 17.76 +19 20 04.5 19.2   704 – Lincoln Laboratory ETS, New Mexico MPS 14006
1999 10 21.28652 02 56 16.85 +19 20 05.9 19.0   704 – Lincoln Laboratory ETS, New Mexico MPS 14006
1999 10 21.30192 02 56 15.98 +19 20 05.9 19.3   704 – Lincoln Laboratory ETS, New Mexico MPS 14006
1999 10 21.31735 02 56 15.21 +19 20 06.6 19.4   704 – Lincoln Laboratory ETS, New Mexico MPS 14006
1999 11 04.31945 02 42 41.03 +19 22 00.8 18.6   704 – Lincoln Laboratory ETS, New Mexico MPS 14006
1999 11 04.33555 02 42 39.98 +19 22 01.1 18.6   704 – Lincoln Laboratory ETS, New Mexico MPS 14006
1999 11 04.35170 02 42 39.00 +19 21 59.8 18.6   704 – Lincoln Laboratory ETS, New Mexico MPS 14006
1999 11 04.36781 02 42 37.99 +19 22 00.4 18.9   704 – Lincoln Laboratory ETS, New Mexico MPS 14006
1999 11 04.38390 02 42 36.96 +19 21 59.9 19.0   704 – Lincoln Laboratory ETS, New Mexico MPS 14006
1999 11 11.37005 02 35 35.30 +19 17 23.9 19.1 R 703 – Catalina Sky Survey MPS 9986
1999 11 11.38236 02 35 34.63 +19 17 24.1 18.9 R 703 – Catalina Sky Survey MPS 9986
1999 11 11.39463 02 35 33.83 +19 17 22.9 18.6 R 703 – Catalina Sky Survey MPS 9987
1999 11 11.40689 02 35 33.14 +19 17 22.0 19.1 R 703 – Catalina Sky Survey MPS 9987
1999 11 14.21125 02 32 50.56 +19 14 54.9 19.0   704 – Lincoln Laboratory ETS, New Mexico MPS 10851
1999 11 14.22599 02 32 49.74 +19 14 54.3 19.5   704 – Lincoln Laboratory ETS, New Mexico MPS 10851
1999 11 14.24071 02 32 48.80 +19 14 53.1 19.1   704 – Lincoln Laboratory ETS, New Mexico MPS 10851
1999 11 14.25543 02 32 47.95 +19 14 53.1 18.8   704 – Lincoln Laboratory ETS, New Mexico MPS 10851
1999 11 14.26993 02 32 47.04 +19 14 53.1 19.0   704 – Lincoln Laboratory ETS, New Mexico MPS 10851
1999 11 14.31232 02 32 44.53 +19 14 49.3 19.1 R 703 – Catalina Sky Survey MPS 9987
1999 11 14.33656 02 32 43.12 +19 14 47.7 18.8 R 703 – Catalina Sky Survey MPS 9987
1999 11 14.34894 02 32 42.39 +19 14 48.2 18.5 R 703 – Catalina Sky Survey MPS 9987
1999 11 14.36124 02 32 41.74 +19 14 46.7 19.1 R 703 – Catalina Sky Survey MPS 9987
1999 11 16.21300 02 30 57.90 +19 13 04.5 18.9   704 – Lincoln Laboratory ETS, New Mexico MPS 9987
1999 11 16.22807 02 30 57.05 +19 13 04.3 19.3   704 – Lincoln Laboratory ETS, New Mexico MPS 9987
1999 11 16.24234 02 30 56.21 +19 13 01.9 18.6   704 – Lincoln Laboratory ETS, New Mexico MPS 9987
1999 11 16.25657 02 30 55.36 +19 13 00.9 18.8   704 – Lincoln Laboratory ETS, New Mexico MPS 9987
1999 11 16.27080 02 30 54.56 +19 13 00.8 18.6   704 – Lincoln Laboratory ETS, New Mexico MPS 9987
2002 04 14.36715 14 13 17.19 -14 03 49.0   704 – Lincoln Laboratory ETS, New Mexico MPS 407480
2002 04 14.38122 14 13 16.43 -14 03 47.2   704 – Lincoln Laboratory ETS, New Mexico MPS 407480
2002 04 14.39529 14 13 15.64 -14 03 45.8   704 – Lincoln Laboratory ETS, New Mexico MPS 407480
2008 09 06.31272 00 13 43.57 -07 43 37.4 18.5 V 703 – Catalina Sky Survey MPS 260678
2008 09 06.31917 00 13 43.24 -07 43 38.1 18.8 V 703 – Catalina Sky Survey MPS 260678
2008 09 06.32561 00 13 42.88 -07 43 39.5 18.8 V 703 – Catalina Sky Survey MPS 260678
2008 09 06.33207 00 13 42.56 -07 43 40.2 18.6 V 703 – Catalina Sky Survey MPS 260678
2008 09 23.23193 23 59 01.63 -08 19 33.7   704 – Lincoln Laboratory ETS, New Mexico MPS 407480
2008 09 23.24424 23 59 00.95 -08 19 34.4   704 – Lincoln Laboratory ETS, New Mexico MPS 407480
2008 09 23.25628 23 59 00.23 -08 19 35.9   704 – Lincoln Laboratory ETS, New Mexico MPS 407480
2008 09 23.26876 23 58 59.51 -08 19 37.4   704 – Lincoln Laboratory ETS, New Mexico MPS 407480
2008 09 23.28089 23 58 58.81 -08 19 38.1   704 – Lincoln Laboratory ETS, New Mexico MPS 407480
2008 09 29.28554 23 53 33.79 -08 26 22.8 18.7 V 703 – Catalina Sky Survey MPS 260678
2008 09 29.29341 23 53 33.28 -08 26 23.2 19.1 V 703 – Catalina Sky Survey MPS 260678
2008 09 29.30135 23 53 32.92 -08 26 23.4 18.6 V 703 – Catalina Sky Survey MPS 260678
2008 09 29.30922 23 53 32.46 -08 26 23.6 18.9 V 703 – Catalina Sky Survey MPS 260678
2008 10 07.26436 23 46 54.33 -08 27 31.8 19.0 V G96 – Mt. Lemmon Survey MPS 260678
2008 10 07.27352 23 46 53.94 -08 27 31.0 18.5 V G96 – Mt. Lemmon Survey MPS 260678
2008 10 07.28276 23 46 53.47 -08 27 31.2 18.7 V G96 – Mt. Lemmon Survey MPS 260678
2008 10 07.29184 23 46 53.00 -08 27 31.0 18.7 V G96 – Mt. Lemmon Survey MPS 260678
2008 10 09.15410 23 45 28.72 -08 26 18.2 19.1 V 703 – Catalina Sky Survey MPS 260678
2008 10 09.16056 23 45 28.36 -08 26 18.4 18.9 V 703 – Catalina Sky Survey MPS 260678
2008 10 09.16712 23 45 28.11 -08 26 19.5 18.7 V 703 – Catalina Sky Survey MPS 260678
2008 10 09.17383 23 45 27.79 -08 26 19.2 18.8 V 703 – Catalina Sky Survey MPS 260678
2008 10 22.19198 23 37 43.71 -08 01 59.8 19.5   704 – Lincoln Laboratory ETS, New Mexico MPS 260479
2008 10 22.20361 23 37 43.39 -08 01 58.0 19.6   704 – Lincoln Laboratory ETS, New Mexico MPS 260479
2008 10 22.21507 23 37 43.08 -08 01 56.4 20.0   704 – Lincoln Laboratory ETS, New Mexico MPS 260479
2008 10 22.22652 23 37 42.67 -08 01 54.1 19.7   704 – Lincoln Laboratory ETS, New Mexico MPS 260479
2008 10 22.23798 23 37 42.40 -08 01 51.5 19.4   704 – Lincoln Laboratory ETS, New Mexico MPS 260479
2008 10 27.15794 23 35 54.92 -07 45 23.1 19.0 V 703 – Catalina Sky Survey MPS 261244
2008 10 27.16588 23 35 54.85 -07 45 20.8 19.6 V 703 – Catalina Sky Survey MPS 261244
2008 10 27.17367 23 35 54.63 -07 45 18.3 19.1 V 703 – Catalina Sky Survey MPS 261244
2008 10 27.18154 23 35 54.45 -07 45 16.3 19.3 V 703 – Catalina Sky Survey MPS 261244
2008 10 30.14201 23 35 09.35 -07 33 29.4 19.7 C 704 – Lincoln Laboratory ETS, New Mexico MPS 287930
2008 10 30.15395 23 35 09.25 -07 33 24.8 19.1 C 704 – Lincoln Laboratory ETS, New Mexico MPS 287930
2008 10 30.16583 23 35 09.08 -07 33 22.1 19.1 C 704 – Lincoln Laboratory ETS, New Mexico MPS 287930
2008 10 30.17770 23 35 08.93 -07 33 19.9 19.3 C 704 – Lincoln Laboratory ETS, New Mexico MPS 287930
2008 10 30.18956 23 35 08.72 -07 33 15.9 19.5 C 704 – Lincoln Laboratory ETS, New Mexico MPS 287930
2008 11 02.14202 23 34 39.04 -07 20 06.2 20.0   704 – Lincoln Laboratory ETS, New Mexico MPS 262987
2008 11 02.16582 23 34 38.88 -07 20 00.5 20.1   704 – Lincoln Laboratory ETS, New Mexico MPS 262987
2008 11 02.17764 23 34 38.71 -07 19 56.4 19.7   704 – Lincoln Laboratory ETS, New Mexico MPS 262987
2008 11 19.08765 23 36 30.78 -05 41 05.0 19.6 V 703 – Catalina Sky Survey MPS 265121
2008 11 19.09502 23 36 30.81 -05 41 03.0 19.8 V 703 – Catalina Sky Survey MPS 265121
2008 11 19.10236 23 36 31.06 -05 40 59.2 19.3 V 703 – Catalina Sky Survey MPS 265121
